Other Surface Observations
Issued by NWS Tucson, AZ

Home | Current Version | Previous Version | Text Only | Print | Product List | Glossary On
Versions: 1 2 3 4 5 6 7 8 9 10 11 12 13 14 15 16 17 18 19 20 21 22 23 24 25 26 27 28 29 30 31 32 33 34 35 36 37 38 39 40 41 42 43 44 45 46 47 48 49 50
424
SXUS55 KTWC 262315
OSOTWC

WEATHER ROUNDUP FOR SOUTHEAST ARIZONA
NATIONAL WEATHER SERVICE TUCSON AZ
415 PM MST WED JUL 26 2017

AZZ504>506-514-270015-
LOCATION       SKY/WX    TMP DP  RH WIND       PRES   REMARKS
TUCSON         MOSUNNY   96  59  29 W9        30.01F
DAVIS-MONTHAN  MOSUNNY   96  57  26 W7        30.00F
CHILDRENS PARK N/A      N/A N/A  28 W5                PIMA CO DEQ
ALVERNON/22ND  N/A       97 N/A N/A NW5               PIMA CO DEQ
CHERRY/GLENN   N/A      N/A N/A N/A N/A               PIMA CO DEQ
TANGERINE      N/A      N/A N/A N/A N/A               PIMA CO DEQ
CONTL RANCH    N/A      100  57  24 W9                PIMA CO DEQ
GRANT/1ST      N/A       97  57  27 W10               PIMA CO DEQ
CRAYCROFT/22ND N/A       97  59  29 N/A               PIMA CO DEQ
GOLFLINKS/KOLB N/A      N/A N/A N/A N/A               PIMA CO DEQ
AJO/12TH       N/A       97  59  29 SW5               PIMA CO DEQ
FAIRGROUNDS    N/A       93 N/A N/A NW5               PIMA CO DEQ
SAGUARO        N/A       98  61  30 NW4G13            *SABINO CYN
SAN CARLOS     N/A       99  56  24 W10G17            *SAN CARLOS
GREEN VALLEY   N/A       95  58  29 NW3               PIMA CO DEQ
HORSE CAMP CYN N/A       91  60  35 W7G20             *ARAVAIPA CYN
RINCON MTNS    NOT AVBL
$$

AZZ509>511-270015-
LOCATION       SKY/WX    TMP DP  RH WIND       PRES   REMARKS
SAFFORD        SUNNY     97  55  24 W13G23    29.97F
STRAY HORSE    N/A       79  53  40 W8G18             *
TRAIL CABIN    N/A       85  53  33 NW8G14            *N OF GRANVILLE
BLACK HILLS    NOT AVBL
DRY LAKE       N/A       81  55  41 W4G10             *NATANES MTNS
NOON CREEK     N/A       87  55  34 NE7G16            *PINALENO MTNS
COLUMBINE      N/A       67  52  59 N4G10             *PINALENO MTNS
GUTHRIE        N/A       85  56  37 W7G23             *SW OF GUTHRIE
$$

AZZ502-503-513-270015-
LOCATION       SKY/WX    TMP DP  RH WIND       PRES   REMARKS
NOGALES        CLOUDY    81  65  58 S10       30.12F
SELLS          N/A      103  58  23 NE3G10            *
SASABE         N/A       92  60  34 N4G10             *ALTAR VLY
HOPKINS        N/A       69  55  61 NW7G12            *SANTA RITA MTNS
CARR CYN       N/A       73  62  69 SE3               *W OF HEREFORD
$$

AZZ507-508-512-270015-
LOCATION       SKY/WX    TMP DP  RH WIND       PRES   REMARKS
SIERRA VISTA   LGT RAIN  78  64  61 E14G20    30.20S
DOUGLAS        CLOUDY    82  63  52 W13       30.12S
EMPIRE MTNS    NOT AVBL
MULESHOE RANCH N/A       89  58  35 NW9G17            *PRESERVE
HEADQUARTERS   NOT AVBL
$$

.............................NOTES.............................
THIS IS AN AUTOMATED COLLECTIVE WITH MINIMAL QUALITY CONTROL.
PIMA CO DEQ SITES HAVE NONSTANDARD WIND SENSOR HEIGHTS.
PIMA CO DEQ SITES DO NOT REPORT WIND GUSTS.
* INDICATES WIND SENSORS LOCATED AT 20 FEET INSTEAD OF 33 FEET.
..............................KEY..............................
SKY/WX - SKY CONDITION/WEATHER
TMP    - TEMPERATURE IN FAHRENHEIT
DP     - DEWPOINT IN FAHRENHEIT
RH     - RELATIVE HUMIDITY IN PERCENT
WIND   - DIRECTION AND SPEED IN MILES PER HOUR (MPH)
VRB    - VARIABLE WIND DIRECTION
PRES   - MEAN SEA LEVEL PRESSURE IN INCHES OF MERCURY
         F - FALLING PRESSURE   R - RISING PRESSURE
         S - STEADY PRESSURE
VSB    - VISIBILITY IN MILES
HX     - HEAT INDEX IN FAHRENHEIT
WCI    - WIND CHILL INDEX IN FAHRENHEIT
N/A    - NOT AVAILABLE
AFB    - AIR FORCE BASE
         DAVIS-MONTHAN IS DAVIS-MONTHAN AIR FORCE BASE
CYN    - CANYON
MTNS   - MOUNTAINS
NCA    - NATIONAL CONSERVATION AREA
NR     - NEAR
VLY    - VALLEY
CONTL  - CONTINENTAL
PIMA CO DEQ - PIMA COUNTY DEPT OF ENVIRONMENTAL QUALITY



USA.gov is the U.S. government's official web portal to all federal, state and local government web resources and services.